Time,TemperatureF,DewpointF,PressureIn,WindDirection,WindDirectionDegrees,WindSpeedMPH,WindSpeedGustMPH,Humidity,HourlyPrecipIn,Conditions,Clouds,dailyrainin,SoftwareType,DateUTC
2013-10-16 00:00:00,59.9,54.3,29.89,NW,307,0.0,8.0,82,0.00,,,0.05,meteohub,2013-10-16 05:00:00,
2013-10-16 00:05:00,59.7,54.5,29.89,WSW,257,0.0,8.0,83,0.00,,,0.00,meteohub,2013-10-16 05:05:00,
2013-10-16 00:10:00,59.5,54.3,29.89,WNW,283,0.0,8.0,83,0.00,,,0.00,meteohub,2013-10-16 05:10:00,
2013-10-16 00:15:00,59.5,54.3,29.89,West,267,4.0,7.0,83,0.00,,,0.00,meteohub,2013-10-16 05:15:00,
2013-10-16 00:20:00,59.5,54.0,29.89,West,263,1.0,9.0,82,0.00,,,0.00,meteohub,2013-10-16 05:20:00,
2013-10-16 00:25:00,59.4,54.1,29.89,WNW,296,0.0,9.0,83,0.00,,,0.00,meteohub,2013-10-16 05:25:00,
2013-10-16 00:30:00,59.2,53.6,29.89,NW,323,6.0,9.0,82,0.00,,,0.00,meteohub,2013-10-16 05:30:00,
2013-10-16 00:36:00,59.2,53.6,29.88,West,276,0.0,11.0,82,0.00,,,0.00,meteohub,2013-10-16 05:36:00,
2013-10-16 00:41:00,58.8,53.4,29.88,NW,321,6.0,11.0,82,0.00,,,0.00,meteohub,2013-10-16 05:41:00,
2013-10-16 00:46:00,58.6,53.2,29.89,NNW,332,6.0,11.0,82,0.00,,,0.00,meteohub,2013-10-16 05:46:00,
2013-10-16 00:51:00,58.6,53.2,29.88,West,275,7.0,11.0,82,0.00,,,0.00,meteohub,2013-10-16 05:51:00,
2013-10-16 00:56:00,58.5,53.1,29.88,West,277,7.0,11.0,82,0.00,,,0.00,meteohub,2013-10-16 05:56:00,
2013-10-16 01:01:00,58.3,52.9,29.88,NNW,328,5.0,10.0,82,0.00,,,0.00,meteohub,2013-10-16 06:01:00,
2013-10-16 01:06:00,57.9,52.5,29.89,North,355,6.0,10.0,82,0.00,,,0.00,meteohub,2013-10-16 06:06:00,
2013-10-16 01:11:00,57.7,52.3,29.89,NW,307,5.0,10.0,82,0.00,,,0.00,meteohub,2013-10-16 06:11:00,
2013-10-16 01:16:00,57.7,52.3,29.88,NW,308,9.0,10.0,82,0.00,,,0.00,meteohub,2013-10-16 06:16:00,
2013-10-16 01:21:00,57.6,52.2,29.89,West,279,4.0,10.0,82,0.00,,,0.00,meteohub,2013-10-16 06:21:00,
2013-10-16 01:26:00,57.4,52.0,29.89,West,270,3.0,11.0,82,0.00,,,0.00,meteohub,2013-10-16 06:26:00,
2013-10-16 01:31:00,57.2,51.8,29.89,WNW,292,5.0,11.0,82,0.00,,,0.00,meteohub,2013-10-16 06:31:00,
2013-10-16 01:36:00,57.0,51.6,29.89,NNW,328,1.0,11.0,82,0.00,,,0.00,meteohub,2013-10-16 06:36:00,
2013-10-16 01:41:00,56.8,51.1,29.89,NNW,344,4.0,11.0,81,0.00,,,0.00,meteohub,2013-10-16 06:41:00,
2013-10-16 01:46:00,56.7,50.9,29.89,NW,304,5.0,10.0,81,0.00,,,0.00,meteohub,2013-10-16 06:46:00,
2013-10-16 01:51:00,56.5,50.7,29.90,WNW,302,1.0,9.0,81,0.00,,,0.00,meteohub,2013-10-16 06:51:00,
2013-10-16 01:56:00,56.1,50.4,29.90,NW,312,1.0,8.0,81,0.00,,,0.00,meteohub,2013-10-16 06:56:00,
2013-10-16 02:01:00,55.9,50.5,29.91,NW,304,0.0,8.0,82,0.00,,,0.00,meteohub,2013-10-16 07:01:00,
2013-10-16 02:06:00,55.8,50.4,29.90,WNW,297,2.0,8.0,82,0.00,,,0.00,meteohub,2013-10-16 07:06:00,
2013-10-16 02:11:00,55.6,50.2,29.90,NW,319,0.0,8.0,82,0.00,,,0.00,meteohub,2013-10-16 07:11:00,
2013-10-16 02:17:00,55.4,50.0,29.91,West,273,5.0,8.0,82,0.00,,,0.00,meteohub,2013-10-16 07:17:00,
2013-10-16 02:22:00,55.0,49.6,29.91,NW,309,4.0,8.0,82,0.00,,,0.00,meteohub,2013-10-16 07:22:00,
2013-10-16 02:27:00,55.0,49.6,29.91,West,276,2.0,9.0,82,0.00,,,0.00,meteohub,2013-10-16 07:27:00,
2013-10-16 02:32:00,54.7,49.6,29.91,NW,326,2.0,9.0,83,0.00,,,0.00,meteohub,2013-10-16 07:32:00,
2013-10-16 02:37:00,54.5,49.5,29.90,NNW,347,4.0,7.0,83,0.00,,,0.00,meteohub,2013-10-16 07:37:00,
2013-10-16 02:42:00,54.3,49.6,29.90,NW,319,6.0,7.0,84,0.00,,,0.00,meteohub,2013-10-16 07:42:00,
2013-10-16 02:47:00,54.1,49.5,29.90,NW,319,2.0,9.0,84,0.00,,,0.00,meteohub,2013-10-16 07:47:00,
2013-10-16 02:52:00,53.8,49.5,29.90,NW,315,2.0,9.0,85,0.00,,,0.00,meteohub,2013-10-16 07:52:00,
2013-10-16 02:57:00,53.6,49.3,29.90,NW,306,2.0,8.0,85,0.00,,,0.00,meteohub,2013-10-16 07:57:00,
2013-10-16 03:02:00,53.2,48.9,29.91,NW,315,2.0,8.0,85,0.00,,,0.00,meteohub,2013-10-16 08:02:00,
2013-10-16 03:07:00,53.1,48.7,29.91,NNW,328,1.0,7.0,85,0.00,,,0.00,meteohub,2013-10-16 08:07:00,
2013-10-16 03:12:00,52.9,48.7,29.90,WNW,302,0.0,6.0,86,0.00,,,0.00,meteohub,2013-10-16 08:12:00,
2013-10-16 03:17:00,52.5,48.4,29.90,NW,319,8.0,8.0,86,0.00,,,0.00,meteohub,2013-10-16 08:17:00,
2013-10-16 03:22:00,52.3,48.0,29.91,NW,311,1.0,11.0,85,0.00,,,0.00,meteohub,2013-10-16 08:22:00,
2013-10-16 03:27:00,52.2,47.5,29.91,NW,311,3.0,11.0,84,0.00,,,0.00,meteohub,2013-10-16 08:27:00,
2013-10-16 03:32:00,52.2,47.1,29.91,NW,318,1.0,11.0,83,0.00,,,0.00,meteohub,2013-10-16 08:32:00,
2013-10-16 03:37:00,52.0,46.9,29.91,NW,319,0.0,8.0,83,0.00,,,0.00,meteohub,2013-10-16 08:37:00,
2013-10-16 03:42:00,51.6,46.6,29.91,NW,314,0.0,8.0,83,0.00,,,0.00,meteohub,2013-10-16 08:42:00,
2013-10-16 03:47:00,51.4,46.8,29.91,WNW,296,0.0,7.0,84,0.00,,,0.00,meteohub,2013-10-16 08:47:00,
2013-10-16 03:52:00,51.3,46.6,29.91,WNW,296,0.0,4.0,84,0.00,,,0.00,meteohub,2013-10-16 08:52:00,
2013-10-16 03:57:00,51.1,46.8,29.91,WNW,295,1.0,4.0,85,0.00,,,0.00,meteohub,2013-10-16 08:57:00,
2013-10-16 04:02:00,50.7,46.8,29.91,WSW,258,0.0,2.0,86,0.00,,,0.00,meteohub,2013-10-16 09:02:00,
2013-10-16 04:07:00,50.7,46.8,29.91,WNW,298,2.0,5.0,86,0.00,,,0.00,meteohub,2013-10-16 09:07:00,
2013-10-16 04:12:00,50.5,46.6,29.91,WNW,301,1.0,7.0,86,0.00,,,0.00,meteohub,2013-10-16 09:12:00,
2013-10-16 04:17:00,50.4,46.4,29.91,West,277,0.0,7.0,86,0.00,,,0.00,meteohub,2013-10-16 09:17:00,
2013-10-16 04:22:00,50.4,46.4,29.91,WSW,242,0.0,7.0,86,0.00,,,0.00,meteohub,2013-10-16 09:22:00,
2013-10-16 04:27:00,50.2,45.9,29.91,West,261,3.0,6.0,85,0.00,,,0.00,meteohub,2013-10-16 09:27:00,
2013-10-16 04:32:00,50.0,45.0,29.91,NNW,339,5.0,9.0,83,0.00,,,0.00,meteohub,2013-10-16 09:32:00,
2013-10-16 04:37:00,49.8,44.6,29.91,NW,319,5.0,9.0,82,0.00,,,0.00,meteohub,2013-10-16 09:37:00,
2013-10-16 04:42:00,49.8,44.2,29.91,WNW,303,1.0,9.0,81,0.00,,,0.00,meteohub,2013-10-16 09:42:00,
2013-10-16 04:47:00,49.6,44.1,29.91,West,272,0.0,7.0,81,0.00,,,0.00,meteohub,2013-10-16 09:47:00,
2013-10-16 04:52:00,49.5,44.2,29.91,WNW,288,1.0,6.0,82,0.00,,,0.00,meteohub,2013-10-16 09:52:00,
2013-10-16 04:57:00,49.3,44.4,29.91,WNW,287,0.0,6.0,83,0.00,,,0.00,meteohub,2013-10-16 09:57:00,
2013-10-16 05:02:00,49.3,44.6,29.92,SW,232,1.0,4.0,84,0.00,,,0.00,meteohub,2013-10-16 10:02:00,
2013-10-16 05:07:00,48.9,44.6,29.91,West,272,0.0,4.0,85,0.00,,,0.00,meteohub,2013-10-16 10:07:00,
2013-10-16 05:12:00,48.9,44.6,29.91,West,273,0.0,9.0,85,0.00,,,0.00,meteohub,2013-10-16 10:12:00,
2013-10-16 05:17:00,48.7,44.4,29.92,NW,315,0.0,9.0,85,0.00,,,0.00,meteohub,2013-10-16 10:17:00,
2013-10-16 05:22:00,48.6,44.2,29.92,SW,229,5.0,9.0,85,0.00,,,0.00,meteohub,2013-10-16 10:22:00,
2013-10-16 05:27:00,48.6,44.2,29.92,WSW,247,4.0,8.0,85,0.00,,,0.00,meteohub,2013-10-16 10:27:00,
2013-10-16 05:32:00,48.4,44.1,29.92,WSW,250,1.0,5.0,85,0.00,,,0.00,meteohub,2013-10-16 10:32:00,
2013-10-16 05:37:00,48.2,43.9,29.92,WSW,248,2.0,5.0,85,0.00,,,0.00,meteohub,2013-10-16 10:37:00,
2013-10-16 05:42:00,48.0,43.7,29.92,SW,230,2.0,5.0,85,0.00,,,0.00,meteohub,2013-10-16 10:42:00,
2013-10-16 05:47:00,47.8,43.5,29.92,SW,227,4.0,5.0,85,0.00,,,0.00,meteohub,2013-10-16 10:47:00,
2013-10-16 05:52:00,47.8,43.9,29.92,WSW,243,0.0,6.0,86,0.00,,,0.00,meteohub,2013-10-16 10:52:00,
2013-10-16 05:57:00,47.7,43.7,29.92,WSW,242,1.0,6.0,86,0.00,,,0.00,meteohub,2013-10-16 10:57:00,
2013-10-16 06:02:00,47.5,43.5,29.93,WSW,238,5.0,6.0,86,0.00,,,0.00,meteohub,2013-10-16 11:02:00,
2013-10-16 06:07:00,47.5,43.5,29.93,WSW,246,1.0,6.0,86,0.00,,,0.00,meteohub,2013-10-16 11:07:00,
2013-10-16 06:12:00,47.3,43.3,29.93,WSW,246,0.0,6.0,86,0.00,,,0.00,meteohub,2013-10-16 11:12:00,
2013-10-16 06:17:00,47.1,43.5,29.92,WSW,246,2.0,6.0,87,0.00,,,0.00,meteohub,2013-10-16 11:17:00,
2013-10-16 06:22:00,46.9,43.3,29.93,WSW,252,1.0,6.0,87,0.00,,,0.00,meteohub,2013-10-16 11:22:00,
2013-10-16 06:27:00,46.9,43.3,29.93,WSW,254,1.0,5.0,87,0.00,,,0.00,meteohub,2013-10-16 11:27:00,
2013-10-16 06:32:00,46.8,43.2,29.93,WSW,254,0.0,5.0,87,0.00,,,0.00,meteohub,2013-10-16 11:32:00,
2013-10-16 06:37:00,46.6,43.0,29.93,WSW,252,2.0,5.0,87,0.00,,,0.00,meteohub,2013-10-16 11:37:00,
2013-10-16 06:42:00,46.6,43.2,29.94,WSW,249,2.0,5.0,88,0.00,,,0.00,meteohub,2013-10-16 11:42:00,
2013-10-16 06:47:00,46.2,42.8,29.93,SW,231,0.0,5.0,88,0.00,,,0.00,meteohub,2013-10-16 11:47:00,
2013-10-16 06:52:00,46.2,43.2,29.94,SW,234,4.0,5.0,89,0.00,,,0.00,meteohub,2013-10-16 11:52:00,
2013-10-16 06:57:00,46.0,43.0,29.94,SW,233,1.0,6.0,89,0.00,,,0.00,meteohub,2013-10-16 11:57:00,
2013-10-16 07:02:00,46.0,43.0,29.94,SW,232,2.0,6.0,89,0.00,,,0.00,meteohub,2013-10-16 12:02:00,
2013-10-16 07:07:00,45.9,42.8,29.94,SW,231,2.0,6.0,89,0.00,,,0.00,meteohub,2013-10-16 12:07:00,
2013-10-16 07:12:00,45.7,42.6,29.94,WSW,237,0.0,5.0,89,0.00,,,0.00,meteohub,2013-10-16 12:12:00,
2013-10-16 07:17:00,45.5,42.4,29.93,SW,236,1.0,4.0,89,0.00,,,0.00,meteohub,2013-10-16 12:17:00,
2013-10-16 07:22:00,45.5,42.4,29.93,WSW,238,0.0,4.0,89,0.00,,,0.00,meteohub,2013-10-16 12:22:00,
2013-10-16 07:27:00,45.3,42.3,29.94,West,262,0.0,6.0,89,0.00,,,0.00,meteohub,2013-10-16 12:27:00,
2013-10-16 07:32:00,45.3,42.3,29.94,WSW,248,1.0,6.0,89,0.00,,,0.00,meteohub,2013-10-16 12:32:00,
2013-10-16 07:37:00,45.1,42.1,29.94,WSW,248,2.0,6.0,89,0.00,,,0.00,meteohub,2013-10-16 12:37:00,
2013-10-16 07:42:00,45.1,42.4,29.94,WSW,247,5.0,5.0,90,0.00,,,0.00,meteohub,2013-10-16 12:42:00,
2013-10-16 07:47:00,45.1,42.4,29.94,WSW,247,1.0,5.0,90,0.00,,,0.00,meteohub,2013-10-16 12:47:00,
2013-10-16 07:52:00,45.1,42.4,29.94,SW,232,1.0,5.0,90,0.00,,,0.00,meteohub,2013-10-16 12:52:00,
2013-10-16 07:57:00,45.3,42.6,29.94,SW,232,1.0,5.0,90,0.00,,,0.00,meteohub,2013-10-16 12:57:00,
2013-10-16 08:02:00,45.7,43.0,29.94,SW,232,2.0,5.0,90,0.00,,,0.00,meteohub,2013-10-16 13:02:00,
2013-10-16 08:07:00,46.0,43.0,29.94,SW,217,5.0,5.0,89,0.00,,,0.00,meteohub,2013-10-16 13:07:00,
2013-10-16 08:12:00,46.2,42.8,29.94,SW,234,1.0,6.0,88,0.00,,,0.00,meteohub,2013-10-16 13:12:00,
2013-10-16 08:17:00,46.8,43.3,29.94,SSW,211,5.0,7.0,88,0.00,,,0.00,meteohub,2013-10-16 13:17:00,
2013-10-16 08:22:00,46.9,43.3,29.94,SW,236,0.0,7.0,87,0.00,,,0.00,meteohub,2013-10-16 13:22:00,
2013-10-16 08:28:00,47.1,43.2,29.94,SSW,212,2.0,7.0,86,0.00,,,0.00,meteohub,2013-10-16 13:28:00,
2013-10-16 08:33:00,47.3,43.0,29.95,WSW,239,0.0,7.0,85,0.00,,,0.00,meteohub,2013-10-16 13:33:00,
2013-10-16 08:38:00,47.5,43.2,29.95,WSW,254,3.0,6.0,85,0.00,,,0.00,meteohub,2013-10-16 13:38:00,
2013-10-16 08:43:00,47.5,43.2,29.95,WNW,284,4.0,7.0,85,0.00,,,0.00,meteohub,2013-10-16 13:43:00,
2013-10-16 08:48:00,47.8,43.2,29.96,WSW,240,1.0,9.0,84,0.00,,,0.00,meteohub,2013-10-16 13:48:00,
2013-10-16 08:53:00,48.0,43.3,29.95,WSW,242,4.0,9.0,84,0.00,,,0.00,meteohub,2013-10-16 13:53:00,
2013-10-16 08:59:00,48.4,43.5,29.96,SW,214,4.0,9.0,83,0.00,,,0.00,meteohub,2013-10-16 13:59:00,
2013-10-16 09:04:00,48.9,44.1,29.96,West,262,4.0,8.0,83,0.00,,,0.00,meteohub,2013-10-16 14:04:00,
2013-10-16 09:09:00,49.5,43.9,29.96,West,269,2.0,8.0,81,0.00,,,0.00,meteohub,2013-10-16 14:09:00,
2013-10-16 09:14:00,49.6,43.3,29.96,SW,236,6.0,8.0,79,0.00,,,0.00,meteohub,2013-10-16 14:14:00,
2013-10-16 09:19:00,49.8,43.5,29.96,WSW,238,1.0,9.0,79,0.00,,,0.00,meteohub,2013-10-16 14:19:00,
2013-10-16 09:24:00,50.4,44.1,29.96,West,267,8.0,10.0,79,0.00,,,0.00,meteohub,2013-10-16 14:24:00,
2013-10-16 09:30:00,50.7,44.1,29.96,WSW,244,0.0,11.0,78,0.00,,,0.00,meteohub,2013-10-16 14:30:00,
2013-10-16 09:35:00,51.3,44.2,29.96,SW,234,0.0,11.0,77,0.00,,,0.00,meteohub,2013-10-16 14:35:00,
2013-10-16 09:40:00,51.3,43.5,29.95,WNW,301,2.0,11.0,75,0.00,,,0.00,meteohub,2013-10-16 14:40:00,
2013-10-16 09:45:00,51.3,43.9,29.96,WSW,248,5.0,11.0,76,0.00,,,0.00,meteohub,2013-10-16 14:45:00,
2013-10-16 09:50:00,51.4,44.1,29.96,West,275,5.0,11.0,76,0.00,,,0.00,meteohub,2013-10-16 14:50:00,
2013-10-16 09:55:00,50.9,43.3,29.96,WSW,255,8.0,12.0,75,0.00,,,0.00,meteohub,2013-10-16 14:55:00,
2013-10-16 10:01:00,50.5,43.3,29.96,SW,232,3.0,12.0,76,0.00,,,0.00,meteohub,2013-10-16 15:01:00,
2013-10-16 10:06:00,50.5,43.5,29.96,SW,216,6.0,12.0,77,0.00,,,0.00,meteohub,2013-10-16 15:06:00,
2013-10-16 10:11:00,51.1,44.1,29.96,WNW,303,10.0,11.0,77,0.00,,,0.00,meteohub,2013-10-16 15:11:00,
2013-10-16 10:16:00,51.1,43.7,29.96,West,270,0.0,13.0,76,0.00,,,0.00,meteohub,2013-10-16 15:16:00,
2013-10-16 10:21:00,51.1,43.7,29.96,SW,224,6.0,13.0,76,0.00,,,0.00,meteohub,2013-10-16 15:21:00,
2013-10-16 10:27:00,51.1,43.5,29.96,West,261,7.0,13.0,75,0.00,,,0.00,meteohub,2013-10-16 15:27:00,
2013-10-16 10:32:00,51.6,44.2,29.96,WSW,238,2.0,12.0,76,0.00,,,0.00,meteohub,2013-10-16 15:32:00,
2013-10-16 10:37:00,52.0,43.9,29.97,WNW,286,7.0,12.0,74,0.00,,,0.00,meteohub,2013-10-16 15:37:00,
2013-10-16 10:42:00,51.6,43.3,29.96,SW,228,5.0,12.0,73,0.00,,,0.00,meteohub,2013-10-16 15:42:00,
2013-10-16 10:47:00,51.3,43.3,29.96,WSW,256,2.0,12.0,74,0.00,,,0.00,meteohub,2013-10-16 15:47:00,
2013-10-16 10:52:00,52.2,44.1,29.96,West,263,6.0,12.0,74,0.00,,,0.00,meteohub,2013-10-16 15:52:00,
2013-10-16 10:57:00,52.9,44.4,29.96,WSW,243,2.0,11.0,73,0.00,,,0.00,meteohub,2013-10-16 15:57:00,
2013-10-16 11:02:00,53.2,44.4,29.96,SW,229,6.0,12.0,72,0.00,,,0.00,meteohub,2013-10-16 16:02:00,
2013-10-16 11:07:00,53.1,44.2,29.96,West,277,4.0,12.0,72,0.00,,,0.00,meteohub,2013-10-16 16:07:00,
2013-10-16 11:12:00,52.5,43.3,29.96,WSW,250,3.0,14.0,71,0.00,,,0.00,meteohub,2013-10-16 16:12:00,
2013-10-16 11:17:00,52.5,44.1,29.96,West,267,2.0,14.0,73,0.00,,,0.00,meteohub,2013-10-16 16:17:00,
2013-10-16 11:22:00,53.2,44.1,29.96,West,261,2.0,14.0,71,0.00,,,0.00,meteohub,2013-10-16 16:22:00,
2013-10-16 11:27:00,54.0,44.8,29.96,SW,220,4.0,14.0,71,0.00,,,0.00,meteohub,2013-10-16 16:27:00,
2013-10-16 11:32:00,55.0,45.1,29.96,West,269,7.0,15.0,69,0.00,,,0.00,meteohub,2013-10-16 16:32:00,
2013-10-16 11:37:00,53.8,43.9,29.96,West,279,4.0,16.0,69,0.00,,,0.00,meteohub,2013-10-16 16:37:00,
2013-10-16 11:42:00,53.4,43.9,29.96,North,355,0.0,19.0,70,0.00,,,0.00,meteohub,2013-10-16 16:42:00,
2013-10-16 11:47:00,53.1,43.9,29.96,NW,307,0.0,19.0,71,0.00,,,0.00,meteohub,2013-10-16 16:47:00,
2013-10-16 11:52:00,52.9,44.1,29.96,West,264,9.0,19.0,72,0.00,,,0.00,meteohub,2013-10-16 16:52:00,
2013-10-16 11:57:00,52.5,43.3,29.96,WNW,298,0.0,14.0,71,0.00,,,0.00,meteohub,2013-10-16 16:57:00,
2013-10-16 12:02:00,52.9,43.7,29.96,West,268,11.0,12.0,71,0.00,,,0.00,meteohub,2013-10-16 17:02:00,
2013-10-16 12:07:00,52.5,43.7,29.96,WNW,291,0.0,12.0,72,0.00,,,0.00,meteohub,2013-10-16 17:07:00,
2013-10-16 12:12:00,52.3,43.5,29.96,NNE,17,1.0,12.0,72,0.00,,,0.00,meteohub,2013-10-16 17:12:00,
2013-10-16 12:17:00,52.2,43.3,29.96,WNW,296,12.0,14.0,72,0.00,,,0.00,meteohub,2013-10-16 17:17:00,
2013-10-16 12:22:00,52.0,43.2,29.96,North,355,0.0,14.0,72,0.00,,,0.00,meteohub,2013-10-16 17:22:00,
2013-10-16 12:27:00,52.2,43.7,29.96,NW,305,0.0,14.0,73,0.00,,,0.00,meteohub,2013-10-16 17:27:00,
2013-10-16 12:32:00,52.3,43.5,29.96,NNW,329,7.0,14.0,72,0.00,,,0.00,meteohub,2013-10-16 17:32:00,
2013-10-16 12:37:00,52.5,43.3,29.96,WNW,300,6.0,10.0,71,0.00,,,0.00,meteohub,2013-10-16 17:37:00,
2013-10-16 12:42:00,52.3,43.2,29.96,WSW,251,5.0,10.0,71,0.00,,,0.00,meteohub,2013-10-16 17:42:00,
2013-10-16 12:47:00,52.3,43.5,29.96,West,259,0.0,9.0,72,0.00,,,0.00,meteohub,2013-10-16 17:47:00,
2013-10-16 12:52:00,52.3,43.5,29.96,SW,231,5.0,11.0,72,0.00,,,0.00,meteohub,2013-10-16 17:52:00,
2013-10-16 12:57:00,52.3,43.5,29.96,WNW,286,0.0,11.0,72,0.00,,,0.00,meteohub,2013-10-16 17:57:00,
2013-10-16 13:02:00,52.2,43.3,29.96,WNW,295,4.0,11.0,72,0.00,,,0.00,meteohub,2013-10-16 18:02:00,
2013-10-16 13:07:00,52.3,43.9,29.96,WNW,292,11.0,12.0,73,0.00,,,0.00,meteohub,2013-10-16 18:07:00,
2013-10-16 13:12:00,52.2,43.3,29.96,NW,310,2.0,13.0,72,0.00,,,0.00,meteohub,2013-10-16 18:12:00,
2013-10-16 13:17:00,52.3,43.5,29.96,NW,306,1.0,13.0,72,0.00,,,0.00,meteohub,2013-10-16 18:17:00,
2013-10-16 13:22:00,52.2,43.3,29.96,West,280,1.0,13.0,72,0.00,,,0.00,meteohub,2013-10-16 18:22:00,
2013-10-16 13:27:00,52.3,43.5,29.95,West,273,6.0,10.0,72,0.00,,,0.00,meteohub,2013-10-16 18:27:00,
2013-10-16 13:31:00,52.5,43.7,29.95,NW,311,10.0,10.0,72,0.00,,,0.00,meteohub,2013-10-16 18:31:00,
2013-10-16 13:36:00,52.5,43.7,29.96,NW,305,3.0,12.0,72,0.00,,,0.00,meteohub,2013-10-16 18:36:00,
2013-10-16 13:42:00,52.3,43.5,29.95,West,277,6.0,13.0,72,0.00,,,0.00,meteohub,2013-10-16 18:42:00,
2013-10-16 13:47:00,52.3,43.9,29.95,SSE,159,2.0,13.0,73,0.00,,,0.00,meteohub,2013-10-16 18:47:00,
2013-10-16 13:52:00,52.5,43.7,29.95,WSW,244,5.0,13.0,72,0.00,,,0.00,meteohub,2013-10-16 18:52:00,
2013-10-16 13:57:00,52.5,44.1,29.95,WSW,246,1.0,13.0,73,0.00,,,0.00,meteohub,2013-10-16 18:57:00,
2013-10-16 14:02:00,52.9,44.4,29.95,WSW,246,7.0,13.0,73,0.00,,,0.00,meteohub,2013-10-16 19:02:00,
2013-10-16 14:07:00,53.1,44.2,29.95,WNW,292,1.0,10.0,72,0.00,,,0.00,meteohub,2013-10-16 19:07:00,
2013-10-16 14:12:00,53.2,43.7,29.95,WSW,237,6.0,10.0,70,0.00,,,0.00,meteohub,2013-10-16 19:12:00,
2013-10-16 14:17:00,53.1,43.5,29.95,WSW,252,7.0,10.0,70,0.00,,,0.00,meteohub,2013-10-16 19:17:00,
2013-10-16 14:22:00,52.9,43.7,29.95,SW,228,4.0,12.0,71,0.00,,,0.00,meteohub,2013-10-16 19:22:00,
2013-10-16 14:27:00,53.1,43.9,29.95,WSW,244,10.0,12.0,71,0.00,,,0.00,meteohub,2013-10-16 19:27:00,
2013-10-16 14:32:00,53.1,43.9,29.95,WSW,240,6.0,12.0,71,0.00,,,0.00,meteohub,2013-10-16 19:32:00,
2013-10-16 14:37:00,53.1,43.5,29.94,WNW,284,7.0,13.0,70,0.00,,,0.00,meteohub,2013-10-16 19:37:00,
2013-10-16 14:42:00,53.1,43.9,29.95,SW,232,5.0,13.0,71,0.00,,,0.00,meteohub,2013-10-16 19:42:00,
2013-10-16 14:47:00,53.2,43.7,29.95,NW,319,2.0,13.0,70,0.00,,,0.00,meteohub,2013-10-16 19:47:00,
2013-10-16 14:52:00,53.2,44.1,29.95,NNW,331,0.0,12.0,71,0.00,,,0.00,meteohub,2013-10-16 19:52:00,
2013-10-16 14:57:00,53.2,43.7,29.95,West,267,6.0,12.0,70,0.00,,,0.00,meteohub,2013-10-16 19:57:00,
2013-10-16 15:02:00,53.4,44.2,29.94,NW,314,9.0,11.0,71,0.00,,,0.00,meteohub,2013-10-16 20:02:00,
2013-10-16 15:07:00,53.4,44.2,29.94,NW,314,6.0,10.0,71,0.00,,,0.00,meteohub,2013-10-16 20:07:00,
2013-10-16 15:12:00,53.6,44.4,29.94,NW,315,4.0,10.0,71,0.00,,,0.00,meteohub,2013-10-16 20:12:00,
2013-10-16 15:17:00,53.4,43.5,29.94,WNW,298,6.0,12.0,69,0.00,,,0.00,meteohub,2013-10-16 20:17:00,
2013-10-16 15:22:00,53.4,43.9,29.94,West,262,7.0,12.0,70,0.00,,,0.00,meteohub,2013-10-16 20:22:00,
2013-10-16 15:27:00,53.4,43.5,29.94,West,267,1.0,13.0,69,0.00,,,0.00,meteohub,2013-10-16 20:27:00,
2013-10-16 15:32:00,54.0,44.1,29.94,WNW,282,8.0,13.0,69,0.00,,,0.00,meteohub,2013-10-16 20:32:00,
2013-10-16 15:37:00,54.5,43.3,29.94,West,274,6.0,13.0,66,0.00,,,0.00,meteohub,2013-10-16 20:37:00,
2013-10-16 15:42:00,54.7,43.9,29.94,NW,321,0.0,12.0,67,0.00,,,0.00,meteohub,2013-10-16 20:42:00,
2013-10-16 15:47:00,54.5,43.3,29.94,SW,221,5.0,12.0,66,0.00,,,0.00,meteohub,2013-10-16 20:47:00,
2013-10-16 15:52:00,54.1,43.3,29.94,SW,216,6.0,12.0,67,0.00,,,0.00,meteohub,2013-10-16 20:52:00,
2013-10-16 15:57:00,54.0,43.7,29.94,SW,234,2.0,11.0,68,0.00,,,0.00,meteohub,2013-10-16 20:57:00,
2013-10-16 16:02:00,53.8,43.9,29.94,SW,227,7.0,11.0,69,0.00,,,0.00,meteohub,2013-10-16 21:02:00,
2013-10-16 16:07:00,53.4,43.5,29.94,West,259,6.0,11.0,69,0.00,,,0.00,meteohub,2013-10-16 21:07:00,
2013-10-16 16:12:00,53.6,43.7,29.94,WSW,257,5.0,12.0,69,0.00,,,0.00,meteohub,2013-10-16 21:12:00,
2013-10-16 16:17:00,53.4,43.5,29.94,WSW,257,2.0,12.0,69,0.00,,,0.00,meteohub,2013-10-16 21:17:00,
2013-10-16 16:22:00,53.4,43.5,29.94,South,178,5.0,12.0,69,0.00,,,0.00,meteohub,2013-10-16 21:22:00,
2013-10-16 16:27:00,53.4,43.5,29.94,SSW,202,5.0,9.0,69,0.00,,,0.00,meteohub,2013-10-16 21:27:00,
2013-10-16 16:32:00,53.4,43.5,29.94,WSW,250,5.0,10.0,69,0.00,,,0.00,meteohub,2013-10-16 21:32:00,
2013-10-16 16:37:00,53.4,43.9,29.93,SW,225,7.0,10.0,70,0.00,,,0.00,meteohub,2013-10-16 21:37:00,
2013-10-16 16:42:00,53.4,43.9,29.94,SW,216,7.0,10.0,70,0.00,,,0.00,meteohub,2013-10-16 21:42:00,
2013-10-16 16:47:00,53.2,43.3,29.94,SW,215,4.0,10.0,69,0.00,,,0.00,meteohub,2013-10-16 21:47:00,
2013-10-16 16:52:00,53.4,43.5,29.94,SW,235,2.0,10.0,69,0.00,,,0.00,meteohub,2013-10-16 21:52:00,
2013-10-16 16:57:00,53.2,43.3,29.94,West,264,5.0,10.0,69,0.00,,,0.00,meteohub,2013-10-16 21:57:00,
2013-10-16 17:02:00,53.2,43.7,29.93,WSW,251,0.0,9.0,70,0.00,,,0.00,meteohub,2013-10-16 22:02:00,
2013-10-16 17:07:00,53.2,43.7,29.93,SSW,202,1.0,8.0,70,0.00,,,0.00,meteohub,2013-10-16 22:07:00,
2013-10-16 17:12:00,53.4,43.9,29.94,WSW,257,0.0,8.0,70,0.00,,,0.00,meteohub,2013-10-16 22:12:00,
2013-10-16 17:17:00,53.4,43.5,29.94,South,189,1.0,6.0,69,0.00,,,0.00,meteohub,2013-10-16 22:17:00,
2013-10-16 17:22:00,53.4,43.5,29.94,WSW,252,2.0,10.0,69,0.00,,,0.00,meteohub,2013-10-16 22:22:00,
2013-10-16 17:27:00,53.4,43.5,29.94,SW,220,2.0,10.0,69,0.00,,,0.00,meteohub,2013-10-16 22:27:00,
2013-10-16 17:32:00,53.2,43.7,29.94,WSW,238,3.0,10.0,70,0.00,,,0.00,meteohub,2013-10-16 22:32:00,
2013-10-16 17:37:00,53.2,43.7,29.94,SW,236,0.0,8.0,70,0.00,,,0.00,meteohub,2013-10-16 22:37:00,
2013-10-16 17:42:00,53.2,43.7,29.94,SW,218,4.0,8.0,70,0.00,,,0.00,meteohub,2013-10-16 22:42:00,
2013-10-16 17:47:00,53.2,43.7,29.94,WNW,288,0.0,8.0,70,0.00,,,0.00,meteohub,2013-10-16 22:47:00,
2013-10-16 17:52:00,53.2,43.7,29.94,SW,214,0.0,6.0,70,0.00,,,0.00,meteohub,2013-10-16 22:52:00,
2013-10-16 17:57:00,53.2,43.7,29.94,SW,227,1.0,6.0,70,0.00,,,0.00,meteohub,2013-10-16 22:57:00,
2013-10-16 18:02:00,53.2,43.7,29.94,SW,224,3.0,5.0,70,0.00,,,0.00,meteohub,2013-10-16 23:02:00,
2013-10-16 18:07:00,53.1,43.9,29.94,SSW,201,2.0,5.0,71,0.00,,,0.00,meteohub,2013-10-16 23:07:00,
2013-10-16 18:12:00,53.1,43.9,29.94,SSW,209,0.0,5.0,71,0.00,,,0.00,meteohub,2013-10-16 23:12:00,
2013-10-16 18:17:00,53.1,44.2,29.94,SSW,213,4.0,5.0,72,0.00,,,0.00,meteohub,2013-10-16 23:17:00,
2013-10-16 18:22:00,52.9,44.1,29.94,SW,222,2.0,6.0,72,0.00,,,0.00,meteohub,2013-10-16 23:22:00,
2013-10-16 18:27:00,52.7,43.9,29.94,SW,223,1.0,6.0,72,0.00,,,0.00,meteohub,2013-10-16 23:27:00,
2013-10-16 18:32:00,52.5,43.7,29.94,SW,219,3.0,6.0,72,0.00,,,0.00,meteohub,2013-10-16 23:32:00,
2013-10-16 18:37:00,52.3,43.9,29.94,SSW,211,3.0,6.0,73,0.00,,,0.00,meteohub,2013-10-16 23:37:00,
2013-10-16 18:42:00,52.3,43.9,29.95,SW,223,0.0,6.0,73,0.00,,,0.00,meteohub,2013-10-16 23:42:00,
2013-10-16 18:47:00,52.2,44.1,29.95,SW,222,0.0,6.0,74,0.00,,,0.00,meteohub,2013-10-16 23:47:00,
2013-10-16 18:52:00,52.3,44.2,29.95,SW,226,0.0,6.0,74,0.00,,,0.00,meteohub,2013-10-16 23:52:00,
2013-10-16 18:57:00,52.3,44.2,29.95,WSW,241,3.0,6.0,74,0.00,,,0.00,meteohub,2013-10-16 23:57:00,
2013-10-16 19:02:00,52.3,43.9,29.95,SW,234,1.0,7.0,73,0.00,,,0.00,meteohub,2013-10-17 00:02:00,
2013-10-16 19:07:00,52.3,43.9,29.96,WSW,243,2.0,7.0,73,0.00,,,0.00,meteohub,2013-10-17 00:07:00,
2013-10-16 19:12:00,52.5,44.1,29.96,WSW,252,1.0,7.0,73,0.00,,,0.00,meteohub,2013-10-17 00:12:00,
2013-10-16 19:17:00,52.5,44.1,29.96,WSW,248,1.0,6.0,73,0.00,,,0.00,meteohub,2013-10-17 00:17:00,
2013-10-16 19:22:00,52.5,44.1,29.96,WSW,244,4.0,7.0,73,0.00,,,0.00,meteohub,2013-10-17 00:22:00,
2013-10-16 19:27:00,52.5,44.1,29.96,West,271,5.0,8.0,73,0.00,,,0.00,meteohub,2013-10-17 00:27:00,
2013-10-16 19:32:00,52.5,44.1,29.96,West,260,4.0,13.0,73,0.00,,,0.00,meteohub,2013-10-17 00:32:00,
2013-10-16 19:37:00,52.3,43.9,29.96,West,265,6.0,13.0,73,0.00,,,0.00,meteohub,2013-10-17 00:37:00,
2013-10-16 19:42:00,52.3,43.9,29.96,West,269,0.0,13.0,73,0.00,,,0.00,meteohub,2013-10-17 00:42:00,
2013-10-16 19:47:00,52.3,43.9,29.96,WSW,253,0.0,8.0,73,0.00,,,0.00,meteohub,2013-10-17 00:47:00,
2013-10-16 19:52:00,52.3,43.9,29.96,SW,232,1.0,7.0,73,0.00,,,0.00,meteohub,2013-10-17 00:52:00,
2013-10-16 19:57:00,52.3,43.9,29.96,WSW,247,2.0,7.0,73,0.00,,,0.00,meteohub,2013-10-17 00:57:00,
2013-10-16 20:02:00,52.3,43.9,29.96,SW,226,0.0,7.0,73,0.00,,,0.00,meteohub,2013-10-17 01:02:00,
2013-10-16 20:07:00,52.3,43.9,29.96,WSW,238,2.0,8.0,73,0.00,,,0.00,meteohub,2013-10-17 01:07:00,
2013-10-16 20:12:00,52.3,43.9,29.96,WSW,237,5.0,8.0,73,0.00,,,0.00,meteohub,2013-10-17 01:12:00,
2013-10-16 20:17:00,52.3,43.9,29.97,WNW,302,0.0,8.0,73,0.00,,,0.00,meteohub,2013-10-17 01:17:00,
2013-10-16 20:22:00,52.3,43.9,29.97,WSW,255,0.0,6.0,73,0.00,,,0.00,meteohub,2013-10-17 01:22:00,
2013-10-16 20:27:00,52.2,43.7,29.97,West,264,1.0,6.0,73,0.00,,,0.00,meteohub,2013-10-17 01:27:00,
2013-10-16 20:32:00,52.2,43.7,29.97,SW,231,0.0,6.0,73,0.00,,,0.00,meteohub,2013-10-17 01:32:00,
2013-10-16 20:37:00,52.0,43.9,29.97,SW,231,0.0,6.0,74,0.00,,,0.00,meteohub,2013-10-17 01:37:00,
2013-10-16 20:42:00,52.0,43.9,29.97,WSW,257,1.0,6.0,74,0.00,,,0.00,meteohub,2013-10-17 01:42:00,
2013-10-16 20:47:00,52.0,43.9,29.97,WSW,256,0.0,4.0,74,0.00,,,0.00,meteohub,2013-10-17 01:47:00,
2013-10-16 20:52:00,51.8,43.7,29.97,WSW,252,0.0,7.0,74,0.00,,,0.00,meteohub,2013-10-17 01:52:00,
2013-10-16 20:57:00,51.6,43.5,29.97,West,259,1.0,7.0,74,0.00,,,0.00,meteohub,2013-10-17 01:57:00,
2013-10-16 21:02:00,51.6,43.5,29.97,West,266,1.0,5.0,74,0.00,,,0.00,meteohub,2013-10-17 02:02:00,
2013-10-16 21:07:00,51.6,43.9,29.97,West,265,0.0,6.0,75,0.00,,,0.00,meteohub,2013-10-17 02:07:00,
2013-10-16 21:12:00,51.4,43.7,29.97,West,263,0.0,6.0,75,0.00,,,0.00,meteohub,2013-10-17 02:12:00,
2013-10-16 21:17:00,51.4,43.7,29.98,West,263,2.0,4.0,75,0.00,,,0.00,meteohub,2013-10-17 02:17:00,
2013-10-16 21:22:00,51.3,43.5,29.98,West,263,1.0,4.0,75,0.00,,,0.00,meteohub,2013-10-17 02:22:00,
2013-10-16 21:27:00,51.1,43.7,29.98,West,263,0.0,5.0,76,0.00,,,0.00,meteohub,2013-10-17 02:27:00,
2013-10-16 21:32:00,50.9,43.5,29.98,West,261,0.0,5.0,76,0.00,,,0.00,meteohub,2013-10-17 02:32:00,
2013-10-16 21:37:00,50.5,43.5,29.97,West,261,0.0,5.0,77,0.00,,,0.00,meteohub,2013-10-17 02:37:00,
2013-10-16 21:42:00,50.4,43.3,29.97,West,261,0.0,4.0,77,0.00,,,0.00,meteohub,2013-10-17 02:42:00,
2013-10-16 21:47:00,50.2,43.5,29.97,West,261,1.0,2.0,78,0.00,,,0.00,meteohub,2013-10-17 02:47:00,
2013-10-16 21:52:00,49.8,43.2,29.97,West,261,2.0,2.0,78,0.00,,,0.00,meteohub,2013-10-17 02:52:00,
2013-10-16 21:57:00,49.8,43.5,29.97,West,261,0.0,4.0,79,0.00,,,0.00,meteohub,2013-10-17 02:57:00,
2013-10-16 22:02:00,49.6,43.3,29.97,West,261,0.0,4.0,79,0.00,,,0.00,meteohub,2013-10-17 03:02:00,
2013-10-16 22:07:00,49.5,43.2,29.97,West,261,0.0,4.0,79,0.00,,,0.00,meteohub,2013-10-17 03:07:00,
2013-10-16 22:12:00,49.3,43.3,29.97,West,261,2.0,4.0,80,0.00,,,0.00,meteohub,2013-10-17 03:12:00,
2013-10-16 22:17:00,48.9,43.0,29.97,West,260,0.0,2.0,80,0.00,,,0.00,meteohub,2013-10-17 03:17:00,
2013-10-16 22:22:00,48.7,43.2,29.97,West,260,0.0,5.0,81,0.00,,,0.00,meteohub,2013-10-17 03:22:00,
2013-10-16 22:27:00,48.6,43.3,29.97,West,260,0.0,5.0,82,0.00,,,0.00,meteohub,2013-10-17 03:27:00,
2013-10-16 22:32:00,48.4,43.2,29.97,West,260,0.0,4.0,82,0.00,,,0.00,meteohub,2013-10-17 03:32:00,
2013-10-16 22:37:00,48.0,42.8,29.97,West,260,1.0,4.0,82,0.00,,,0.00,meteohub,2013-10-17 03:37:00,
2013-10-16 22:42:00,47.8,43.0,29.97,West,260,0.0,4.0,83,0.00,,,0.00,meteohub,2013-10-17 03:42:00,
2013-10-16 22:47:00,47.7,42.8,29.97,West,260,0.0,2.0,83,0.00,,,0.00,meteohub,2013-10-17 03:47:00,
2013-10-16 22:52:00,47.7,42.8,29.97,West,260,0.0,3.0,83,0.00,,,0.00,meteohub,2013-10-17 03:52:00,
2013-10-16 22:57:00,47.3,42.8,29.97,West,260,0.0,3.0,84,0.00,,,0.00,meteohub,2013-10-17 03:57:00,
2013-10-16 23:01:00,47.1,42.6,29.97,West,260,0.0,1.0,84,0.00,,,0.00,meteohub,2013-10-17 04:01:00,
2013-10-16 23:02:00,47.1,42.6,29.97,West,260,0.0,1.0,84,0.00,,,0.00,meteohub,2013-10-17 04:02:00,
2013-10-16 23:03:00,47.1,42.8,29.96,West,260,0.0,1.0,85,0.00,,,0.00,meteohub,2013-10-17 04:03:00,
2013-10-16 23:04:00,46.9,42.4,29.97,West,260,0.0,1.0,84,0.00,,,0.00,meteohub,2013-10-17 04:04:00,
2013-10-16 23:07:00,46.9,42.6,29.97,West,260,0.0,0.0,85,0.00,,,0.00,meteohub,2013-10-17 04:07:00,
2013-10-16 23:12:00,46.8,42.4,29.97,West,260,0.0,0.0,85,0.00,,,0.00,meteohub,2013-10-17 04:12:00,
2013-10-16 23:17:00,46.8,42.8,29.97,West,260,2.0,0.0,86,0.00,,,0.00,meteohub,2013-10-17 04:17:00,
2013-10-16 23:22:00,46.8,42.8,29.97,West,260,1.0,2.0,86,0.00,,,0.00,meteohub,2013-10-17 04:22:00,
2013-10-16 23:27:00,46.8,42.8,29.97,West,260,2.0,4.0,86,0.00,,,0.00,meteohub,2013-10-17 04:27:00,
2013-10-16 23:32:00,46.9,43.0,29.97,West,260,0.0,4.0,86,0.00,,,0.00,meteohub,2013-10-17 04:32:00,
2013-10-16 23:37:00,46.9,43.0,29.96,West,260,0.0,4.0,86,0.00,,,0.00,meteohub,2013-10-17 04:37:00,
2013-10-16 23:42:00,46.9,43.0,29.96,West,260,0.0,4.0,86,0.00,,,0.00,meteohub,2013-10-17 04:42:00,
2013-10-16 23:47:00,46.8,42.8,29.96,West,260,0.0,1.0,86,0.00,,,0.00,meteohub,2013-10-17 04:47:00,
2013-10-16 23:52:00,46.8,43.2,29.96,West,260,0.0,0.0,87,0.00,,,0.00,meteohub,2013-10-17 04:52:00,
2013-10-16 23:57:00,46.8,42.8,29.96,West,260,0.0,0.0,86,0.00,,,0.00,meteohub,2013-10-17 04:57:00,